K5RG-3 Weather Reports


time (UTC)temp
C
wind
direction
speed
KPH
gust
KPH
rain 1hr
cm
rain 24hr
cm
rain mn
cm
humidity
%
barometer
mb
20260901224511 28 335 3.2 14.5 0.00 0.05 0.05 83 1011.0
20260901223012 28 319 4.8 16.1 0.00 0.05 0.05 82 1010.8
20260901221534 28 318 4.8 12.9 0.00 0.05 0.05 83 1010.8
20260901220013 28 278 4.8 14.5 0.00 0.05 0.05 83 1010.6
20260901214507 28 278 4.8 11.3 0.00 0.05 0.05 82 1010.9
20260901213005 28 300 4.8 12.9 0.00 0.05 0.05 81 1011.2
20260901211506 29 305 3.2 11.3 0.00 0.05 0.05 80 1011.4
20260901210009 28 252 3.2 11.3 0.00 0.15 0.05 81 1011.4
20260901204508 28 252 6.4 14.5 0.00 0.15 0.05 81 1011.2
20260901203004 28 308 6.4 14.5 0.00 0.15 0.05 82 1011.1
20260901201506 28 277 8.0 16.1 0.00 0.15 0.05 82 1011.2
20260901200100 28 263 4.8 12.9 0.03 0.15 0.05 82 1011.5
20260901194556 27 331 6.4 12.9 0.03 0.15 0.05 82 1012.0
20260901193106 27 261 6.4 12.9 0.03 0.15 0.05 83 1012.1
20260901191554 27 279 4.8 12.9 0.03 0.15 0.05 84 1012.2
20260901190054 28 311 3.2 6.4 0.00 0.13 0.03 83 1012.5
20260901184557 28 345 3.2 6.4 0.00 0.13 0.03 84 1012.7
20260901183056 28 307 3.2 9.7 0.00 0.13 0.03 83 1012.7
20260901181553 28 348 4.8 11.3 0.03 0.13 0.03 82 1012.8
20260901180052 28 340 6.4 14.5 0.03 0.13 0.03 83 1012.8
20260901174553 28 346 4.8 12.9 0.03 0.13 0.03 83 1013.0
20260901173050 28 293 3.2 8.0 0.03 0.13 0.03 83 1013.3
20260901171557 28 344 3.2 9.7 0.00 0.10 0.00 82 1013.6
20260901170050 28 352 1.6 11.3 0.00 0.10 0.00 81 1014.0
20260901164549 29 344 4.8 14.5 0.00 0.10 0.00 78 1014.0
20260901163050 29 352 3.2 12.9 0.00 0.10 0.00 78 1014.1
20260901161548 30 36 1.6 12.9 0.00 0.10 0.00 78 1014.1
20260901160056 30 360 4.8 16.1 0.00 0.10 0.00 78 1014.0
20260901154544 29 9 3.2 12.9 0.00 0.10 0.00 79 1013.8
20260901153042 29 25 4.8 14.5 0.00 0.10 0.00 79 1013.6
20260901151539 28 25 6.4 12.9 0.00 0.10 0.00 80 1013.6
20260901150036 28 352 4.8 14.5 0.00 0.10 0.00 81 1013.5
20260901144531 28 34 3.2 11.3 0.00 0.10 0.00 82 1013.5
20260901143031 28 331 4.8 11.3 0.00 0.10 0.00 82 1013.5
20260901141527 28 352 4.8 12.9 0.00 0.10 0.00 83 1013.6
20260901140023 27 329 4.8 11.3 0.00 0.10 0.00 85 1013.5
20260901134534 27 325 4.8 11.3 0.00 0.10 0.00 85 1013.3
20260901133019 27 325 3.2 9.7 0.00 0.10 0.00 86 1013.5
20260901131517 27 344 1.6 11.3 0.00 0.10 0.00 87 1013.4
20260901130015 27 338 1.6 9.7 0.00 0.10 0.00 87 1013.2
20260901124511 27 346 3.2 9.7 0.00 0.10 0.00 88 1013.1
20260901123012 27 46 1.6 4.8 0.00 0.10 0.00 88 1013.0
20260901121512 27 344 0.0 4.8 0.00 0.10 0.00 88 1012.7
20260901120007 27 336 1.6 6.4 0.00 0.10 0.00 88 1012.5
20260901114508 27 27 1.6 4.8 0.00 0.10 0.00 88 1012.5
20260901113013 27 27 1.6 4.8 0.00 0.10 0.00 88 1012.7
20260901111504 27 323 0.0 0.0 0.00 0.10 0.00 89 1012.5
20260901110004 27 309 3.2 8.0 0.00 0.10 0.00 89 1012.4
20260901104501 27 334 3.2 8.0 0.00 0.10 0.00 89 1012.3
20260901103105 27 317 0.0 3.2 0.00 0.10 0.00 89 1012.4
20260901101615 27 333 1.6 4.8 0.00 0.10 0.00 89 1012.4
20260901100114 27 331 1.6 6.4 0.00 0.10 0.00 88 1012.3
20260901094558 27 326 3.2 4.8 0.00 0.10 0.00 88 1012.5
20260901093056 27 327 3.2 6.4 0.00 0.10 0.00 89 1012.5
20260901091556 27 301 1.6 6.4 0.00 0.10 0.00 89 1012.6
20260901090101 27 298 1.6 4.8 0.00 0.10 0.00 89 1012.7
20260901084559 27 279 4.8 6.4 0.00 0.10 0.00 89 1012.7
20260901083054 27 273 1.6 4.8 0.00 0.10 0.00 89 1012.7
20260901081557 27 275 0.0 0.0 0.00 0.10 0.00 89 1012.6
20260901080053 27 122 0.0 0.0 0.00 0.10 0.00 88 1012.7
20260901074550 27 122 0.0 0.0 0.00 0.10 0.00 88 1012.7
20260901073151 27 122 0.0 0.0 0.00 0.10 0.00 88 1012.7
20260901071546 27 122 0.0 0.0 0.00 0.10 0.00 87 1012.8
20260901070057 27 122 0.0 0.0 0.00 0.10 0.00 87 1013.0
20260901064545 27 122 0.0 0.0 0.00 0.10 0.00 86 1012.9
20260901063047 27 122 0.0 0.0 0.00 0.10 0.00 86 1012.8
20260901061542 27 122 0.0 0.0 0.00 0.10 0.00 86 1012.9
20260901060045 27 122 0.0 0.0 0.00 0.10 0.00 86 1013.2
20260901054541 27 122 0.0 0.0 0.00 0.10 0.00 86 1013.1
20260901053102 27 122 0.0 3.2 0.00 0.10 0.00 85 1013.0
20260901051538 27 122 0.0 1.6 0.00 0.10 0.00 85 1013.0
20260901050037 27 122 0.0 1.6 0.00 0.10 0.00 86 1013.0
20260901044554 27 122 0.0 0.0 0.00 0.10 0.10 85 1012.8
20260901043040 27 122 0.0 0.0 0.00 0.10 0.10 85 1013.0
20260901041536 28 122 0.0 0.0 0.00 0.10 0.10 84 1013.0
20260901040036 28 122 0.0 0.0 0.00 0.10 0.10 84 1012.9
20260901034541 28 122 0.0 1.6 0.00 0.10 0.10 84 1012.9
20260901033041 28 122 0.0 0.0 0.00 0.10 0.10 84 1012.9
20260901031544 28 122 0.0 0.0 0.00 0.10 0.10 84 1012.9
20260901030034 28 122 0.0 0.0 0.00 0.10 0.10 83 1012.7
20260901024536 29 122 0.0 0.0 0.00 0.10 0.10 82 1012.5
20260901023039 29 201 0.0 0.0 0.00 0.10 0.10 82 1012.2
20260901021538 29 201 0.0 0.0 0.00 0.10 0.10 82 1012.1
20260901020054 29 201 0.0 0.0 0.00 0.10 0.10 82 1011.9
20260901014531 29 201 0.0 0.0 0.00 0.10 0.10 81 1011.7
20260901013030 30 201 0.0 0.0 0.00 0.10 0.10 80 1011.7
20260901011537 30 201 0.0 0.0 0.00 0.10 0.10 79 1011.8
20260901010029 30 201 0.0 0.0 0.00 0.10 0.10 77 1011.6
20260901004528 30 201 0.0 0.0 0.00 0.10 0.10 77 1011.7
20260901003030 30 182 0.0 1.6 0.00 0.10 0.10 76 1011.8
20260901001528 31 209 0.0 3.2 0.00 0.10 0.10 75 1011.8
20260901000026 31 226 0.0 3.2 0.00 0.10 0.10 75 1011.7
20260831234526 31 212 0.0 1.6 0.00 0.10 0.10 74 1011.7
20260831233035 31 169 0.0 0.0 0.00 0.10 0.10 73 1011.8
20260831231526 31 182 0.0 1.6 0.00 0.10 0.10 73 1011.8
20260831230023 31 182 0.0 1.6 0.00 0.10 0.10 73 1011.9